This is the latest recevied weather packets stored in our database for station/object KB3FKJ. If no packets are shown the sender has not sent any weather packets the latest 10 day(s).
| Time | Temp. | Humidity | Pressure | Rain* | Wind** | Luminosity | Snow |
|---|---|---|---|---|---|---|---|
| 1777912555 | 19.44° C | 47% | 1009.9 hPa | 0 mm | - | 65 W/m² | - |
| 1777912251 | 18.89° C | 45% | 1010 hPa | 0 mm | - | 60 W/m² | - |
| 1777911947 | 18.89° C | 44% | 1010.1 hPa | 0 mm | - | 64 W/m² | - |
| 1777911644 | 18.89° C | 46% | 1010.1 hPa | 0 mm | - | 61 W/m² | - |
| 1777911340 | 18.33° C | 48% | 1010 hPa | 0 mm | - | 58 W/m² | - |
| 1777911038 | 18.89° C | 46% | 1010.2 hPa | 0 mm | - | 52 W/m² | - |
| 1777910735 | 18.89° C | 45% | 1010.3 hPa | 0 mm | - | 52 W/m² | - |
| 1777910432 | 17.78° C | 48% | 1010.2 hPa | 0 mm | - | 46 W/m² | - |
| 1777910128 | 18.33° C | 46% | 1010.3 hPa | 0 mm | - | 43 W/m² | - |
| 1777909826 | 17.78° C | 47% | 1010.5 hPa | 0 mm | - | 43 W/m² | - |
| 1777909522 | 17.22° C | 44% | 1010.6 hPa | 0 mm | - | 46 W/m² | - |
| 1777909220 | 17.78° C | 44% | 1010.6 hPa | 0 mm | - | 55 W/m² | - |
| 1777908918 | 17.22° C | 48% | 1010.9 hPa | 0 mm | - | 59 W/m² | - |
| 1777908616 | 17.22° C | 46% | 1010.7 hPa | 0 mm | - | 48 W/m² | - |
| 1777908312 | 16.67° C | 48% | 1010.9 hPa | 0 mm | - | 45 W/m² | - |
| 1777908008 | 16.67° C | 49% | 1010.8 hPa | 0 mm | - | 45 W/m² | - |
| 1777907704 | 16.67° C | 45% | 1010.8 hPa | 0 mm | - | 48 W/m² | - |
| 1777907398 | 16.67° C | 47% | 1010.9 hPa | 0 mm | - | 212 W/m² | - |
| 1777907096 | 16.11° C | 49% | 1011 hPa | 0 mm | - | 50 W/m² | - |
| 1777906794 | 16.11° C | 47% | 1010.9 hPa | 0 mm | - | 48 W/m² | - |
| 1777906491 | 16.11° C | 48% | 1011 hPa | 0 mm | - | 60 W/m² | - |
| 1777906187 | 15.56° C | 47% | 1011 hPa | 0 mm | - | 46 W/m² | - |
| 1777905883 | 15.56° C | 49% | 1010.9 hPa | 0 mm | - | 48 W/m² | - |
| 1777905580 | 15° C | 49% | 1011.1 hPa | 0 mm | - | 50 W/m² | - |
| 1777905277 | 15° C | 48% | 1011.2 hPa | 0 mm | - | 47 W/m² | - |
* Rain latest hour (hover to see other rain measurements)
** Current wind speed in m/s (hover to see current wind gust speed)